DW0108 Weather Reports


Display with metric or nautical units.
time (UTC)temp
F
wind
direction
speed
MPH
gust
MPH
rain 1hr
in
rain 24hr
in
rain mn
in
humidity
%
barometer
mb
20260508080831 60 95 1.0 2.0 0.00 0.00 1.14 95 1014.8
20260508075818 60 74 1.0 2.0 0.00 0.00 1.05 95 1014.8
20260508074820 60 104 0.0 2.0 0.00 0.00 0.95 95 1015.2
20260508073817 60 104 0.0 1.0 0.00 0.00 0.85 94 1015.5
20260508072817 60 68 0.0 2.0 0.00 0.00 0.75 93 1015.5
20260508071834 60 40 0.0 1.0 0.00 0.00 0.65 92 1015.9
20260508070813 60 83 0.0 1.0 0.00 0.00 0.55 92 1015.9
20260508065812 60 51 1.0 1.0 0.00 0.00 0.45 92 1015.9
20260508064844 60 31 0.0 1.0 0.00 0.00 0.35 93 1015.9
20260508063843 60 35 0.0 1.0 0.00 0.00 0.25 93 1015.5
20260508062837 61 52 0.0 1.0 0.00 0.00 0.15 92 1015.9
20260508061834 61 65 0.0 1.0 0.00 0.00 0.05 89 1015.9
20260508060824 61 44 1.0 2.0 0.00 0.00 0.00 87 1015.9
20260508055806 61 60 1.0 2.0 0.00 0.00 0.00 87 1015.5
20260508053835 62 76 0.0 1.0 0.00 0.00 0.00 83 1016.2
20260508052834 61 98 0.0 1.0 0.00 0.00 0.00 82 1016.2
20260508051822 61 116 0.0 1.0 0.00 0.00 0.00 82 1016.2
20260508050834 61 70 0.0 1.0 0.00 0.00 0.00 85 1016.5
20260508045844 61 87 0.0 1.0 0.00 0.00 0.00 87 1016.2
20260508044828 61 57 0.0 1.0 0.00 0.00 0.00 86 1016.2
20260508043821 61 96 0.0 1.0 0.00 0.00 0.00 86 1016.2
20260508042841 61 46 0.0 1.0 0.00 0.00 0.00 85 1016.2
20260508040822 62 117 0.0 1.0 0.00 0.00 0.00 81 1016.2
20260508035822 63 50 0.0 2.0 0.00 0.00 0.00 82 1015.9
20260508034811 62 45 0.0 0.0 0.00 0.00 0.00 82 1015.9
20260508032837 63 81 0.0 1.0 0.00 0.00 0.00 82 1015.5
20260508031817 63 52 0.0 2.0 0.00 0.00 0.00 81 1015.5
20260508030831 63 38 0.0 0.0 0.00 0.00 0.00 80 1015.5
20260508025838 63 18 0.0 0.0 0.00 0.00 0.00 80 1015.2
20260508024848 63 35 0.0 1.0 0.00 0.00 0.00 79 1015.5
20260508023848 64 59 0.0 1.0 0.00 0.00 0.00 78 1015.2
20260508022808 64 54 0.0 1.0 0.00 0.00 0.00 77 1015.2
20260508021842 64 75 1.0 2.0 0.00 0.00 0.00 77 1015.2
20260508020809 64 83 0.0 1.0 0.00 0.00 0.00 76 1015.2
20260508015807 65 55 0.0 2.0 0.00 0.00 0.00 74 1015.2
20260508014804 65 83 0.0 2.0 0.00 0.00 0.00 72 1015.2
20260508012821 66 109 0.0 1.0 0.00 0.00 0.00 70 1015.2
20260508011820 66 115 1.0 2.0 0.00 0.00 0.00 69 1015.2
20260508010805 66 127 0.0 2.0 0.00 0.00 0.00 68 1015.2
20260508003831 67 151 1.0 3.0 0.00 0.00 0.00 66 1015.2
20260508002839 68 141 1.0 3.0 0.00 0.00 0.00 65 1015.2
20260508001844 68 145 2.0 4.0 0.00 0.00 0.00 64 1015.2
20260508000833 68 144 2.0 6.0 0.00 0.00 0.00 64 1015.2
20260507235832 69 156 1.0 4.0 0.00 0.00 0.10 65 1015.5
20260507234810 69 151 2.0 5.0 0.00 0.00 0.10 63 1015.2
20260507233834 69 160 2.0 6.0 0.00 0.00 0.10 62 1015.5
20260507232812 69 151 3.0 5.0 0.00 0.00 0.10 62 1015.9
20260507231827 69 145 3.0 6.0 0.00 0.00 0.10 62 1015.5
20260507230813 69 157 3.0 7.0 0.00 0.00 0.10 61 1015.5
20260507225805 70 156 2.0 5.0 0.00 0.00 0.10 61 1015.9
20260507224842 71 140 1.0 2.0 0.00 0.00 0.10 51 1015.2
20260507223816 70 133 1.0 3.0 0.00 0.00 0.10 51 1015.9
20260507222848 70 141 1.0 3.0 0.00 0.00 0.10 51 1015.9
20260507221817 71 112 0.0 2.0 0.00 0.00 0.10 52 1015.9
20260507220812 71 139 1.0 4.0 0.00 0.00 0.10 53 1015.9
20260507215809 71 138 0.0 2.0 0.00 0.00 0.10 52 1015.9
20260507214832 71 150 2.0 4.0 0.00 0.00 0.10 52 1015.9
20260507213847 71 123 1.0 3.0 0.00 0.00 0.10 50 1015.9
20260507211818 71 103 2.0 4.0 0.00 0.00 0.10 53 1016.5
20260507210839 71 85 1.0 2.0 0.00 0.00 0.10 52 1016.5
20260507205829 71 130 2.0 3.0 0.00 0.00 0.10 53 1016.9
20260507202842 71 93 1.0 4.0 0.00 0.00 0.10 51 1016.5
20260507201846 71 86 1.0 2.0 0.00 0.00 0.10 51 1016.2
20260507200834 72 72 1.0 3.0 0.00 0.00 0.10 51 1016.5
20260507194812 72 125 1.0 2.0 0.00 0.00 0.10 50 1017.2
20260507193814 71 48 2.0 5.0 0.00 0.00 0.10 49 1017.2
20260507192823 71 108 1.0 3.0 0.00 0.00 0.10 51 1017.2
20260507190817 71 66 1.0 3.0 0.00 0.00 0.10 50 1017.9
20260507185812 72 78 2.0 4.0 0.00 0.00 0.10 49 1017.9
20260507184834 72 88 2.0 6.0 0.00 0.00 0.10 51 1017.9
20260507183836 71 115 3.0 6.0 0.00 0.00 0.10 50 1017.9
20260507182812 71 36 2.0 4.0 0.00 0.00 0.10 50 1017.9
20260507181821 70 48 3.0 6.0 0.00 0.00 0.10 52 1017.9
20260507180833 70 31 2.0 5.0 0.00 0.00 0.10 52 1017.9
20260507174818 69 71 2.0 4.0 0.00 0.00 0.10 54 1018.2
20260507173816 69 43 2.0 6.0 0.00 0.00 0.10 56 1018.6
20260507172848 69 68 3.0 5.0 0.00 0.00 0.10 56 1018.6
20260507171804 68 33 3.0 6.0 0.00 0.00 0.10 57 1018.9
20260507165820 67 64 2.0 5.0 0.00 0.00 0.10 57 1019.2
20260507164823 67 151 2.0 5.0 0.00 0.00 0.10 59 1019.6
20260507162809 67 164 2.0 3.0 0.00 0.00 0.10 59 1019.9
20260507161815 66 81 2.0 4.0 0.00 0.00 0.10 64 1019.9
20260507160828 64 77 2.0 5.0 0.00 0.00 0.10 63 1019.9
20260507154828 64 71 2.0 4.0 0.00 0.00 0.10 67 1019.9
20260507153828 64 71 2.0 4.0 0.00 0.00 0.10 70 1019.9
20260507152845 65 65 2.0 4.0 0.00 0.00 0.10 66 1020.3
20260507151836 64 77 2.0 4.0 0.00 0.00 0.10 69 1020.3
20260507150828 64 65 2.0 6.0 0.00 0.00 0.10 70 1020.3
20260507144818 63 67 2.0 4.0 0.00 0.00 0.10 73 1020.3
20260507143804 61 34 2.0 4.0 0.00 0.00 0.10 75 1020.6
20260507142819 61 38 2.0 4.0 0.00 0.00 0.10 77 1020.6
20260507141810 61 76 1.0 4.0 0.00 0.00 0.10 78 1020.3
20260507135807 59 149 1.0 4.0 0.00 0.00 0.10 83 1020.6
20260507133846 57 140 2.0 3.0 0.00 0.00 0.10 85 1020.6
20260507132834 56 141 1.0 2.0 0.00 0.00 0.10 88 1020.9
20260507131809 55 89 1.0 2.0 0.00 0.00 0.10 89 1020.9
20260507125837 55 55 1.0 2.0 0.00 0.00 0.10 89 1020.6
20260507124847 55 61 0.0 2.0 0.00 0.00 0.10 90 1020.6
20260507123848 54 63 0.0 1.0 0.00 0.00 0.10 91 1020.6
20260507122810 53 76 0.0 1.0 0.00 0.00 0.10 91 1020.6
20260507121832 53 101 0.0 1.0 0.00 0.00 0.10 91 1020.6
20260507120834 53 95 0.0 2.0 0.00 0.00 0.10 92 1020.6
20260507115821 52 99 0.0 2.0 0.00 0.00 0.10 92 1020.6
20260507114838 52 65 0.0 1.0 0.00 0.00 0.10 92 1020.6
20260507112824 53 44 0.0 1.0 0.00 0.00 0.10 92 1020.3
20260507111830 53 176 1.0 2.0 0.00 0.00 0.10 92 1019.9
20260507110833 53 212 1.0 2.0 0.00 0.00 0.10 92 1019.9
20260507105825 53 207 1.0 3.0 0.00 0.00 0.10 91 1019.9
20260507104809 53 276 1.0 2.0 0.00 0.00 0.10 90 1019.9
20260507103810 53 49 1.0 2.0 0.00 0.00 0.10 91 1019.6
20260507102847 53 209 1.0 3.0 0.00 0.00 0.10 91 1019.6
20260507101847 54 75 1.0 3.0 0.00 0.00 0.10 90 1019.2
20260507100805 54 247 1.0 2.0 0.00 0.00 0.10 90 1019.2
20260507093819 54 179 1.0 2.0 0.00 0.00 0.10 89 1018.9
20260507092821 54 57 1.0 2.0 0.00 0.00 0.10 89 1018.6
20260507091813 55 59 0.0 1.0 0.00 0.00 0.10 89 1018.2
20260507090849 55 65 0.0 1.0 0.00 0.00 0.10 88 1018.6
20260507084844 55 88 1.0 2.0 0.00 0.00 0.10 86 1017.9
20260507083812 55 80 1.0 2.0 0.00 0.00 0.10 86 1017.9
20260507082830 55 36 1.0 2.0 0.00 0.00 0.10 87 1017.9
20260507081819 55 66 1.0 2.0 0.00 0.00 0.10 86 1017.9